DW8219 Weather Reports


Display with metric or nautical units.
time (UTC)temp
F
wind
direction
speed
MPH
gust
MPH
rain 1hr
in
rain 24hr
in
rain mn
in
humidity
%
barometer
mb
20180820222857 73 146 1.0 3.0 0.00 0.00 0.00 75 1018.4
20180820222357 74 148 0.0 3.0 0.00 0.00 0.00 75 1018.4
20180820221856 74 149 3.0 6.0 0.00 0.00 0.00 75 1018.3
20180820221357 74 146 2.0 5.0 0.00 0.00 0.00 74 1018.4
20180820220857 74 148 2.0 6.0 0.00 0.00 0.00 74 1018.3
20180820220357 74 155 3.0 7.0 0.00 0.00 0.00 74 1018.2
20180820215857 74 142 2.0 7.0 0.00 0.00 0.00 74 1018.2
20180820215357 74 101 1.0 3.0 0.00 0.00 0.00 73 1018.2
20180820214857 74 101 2.0 3.0 0.00 0.00 0.00 74 1018.3
20180820214356 74 90 1.0 8.0 0.00 0.00 0.00 73 1018.3
20180820213856 74 94 2.0 3.0 0.00 0.00 0.00 74 1018.2
20180820213356 74 88 2.0 3.0 0.00 0.00 0.00 73 1018.2
20180820212857 74 29 3.0 8.0 0.00 0.00 0.00 75 1018.1
20180820212356 74 98 2.0 9.0 0.00 0.00 0.00 75 1018.2
20180820211856 74 99 2.0 8.0 0.00 0.00 0.00 74 1018.2
20180820211356 74 77 3.0 7.0 0.00 0.00 0.00 74 1018.1
20180820210857 74 136 2.0 8.0 0.00 0.00 0.00 74 1018.1
20180820210357 74 144 1.0 9.0 0.00 0.00 0.00 73 1018.1
20180820205856 74 145 2.0 8.0 0.00 0.00 0.00 74 1018.1
20180820205357 75 131 1.0 6.0 0.00 0.00 0.00 73 1018.1
20180820204857 75 122 2.0 9.0 0.00 0.00 0.00 72 1018.1
20180820204357 74 103 2.0 8.0 0.00 0.00 0.00 73 1018.1
20180820203856 74 117 3.0 7.0 0.00 0.00 0.00 72 1018.2
20180820203357 75 117 2.0 6.0 0.00 0.00 0.00 72 1018.3
20180820202857 74 110 2.0 6.0 0.00 0.00 0.00 73 1018.3
20180820202357 75 141 1.0 3.0 0.00 0.00 0.00 74 1018.4
20180820201857 74 136 2.0 7.0 0.00 0.00 0.00 75 1018.4
20180820201357 74 94 2.0 3.0 0.00 0.00 0.00 73 1018.5
20180820200857 74 130 2.0 3.0 0.00 0.00 0.00 73 1018.5
20180820200357 74 132 1.0 5.0 0.00 0.00 0.00 75 1018.6
20180820195857 74 115 1.0 7.0 0.00 0.00 0.00 73 1018.7
20180820195357 74 105 2.0 6.0 0.00 0.00 0.00 74 1018.7
20180820194857 74 93 1.0 6.0 0.00 0.00 0.00 74 1018.8
20180820194357 74 89 4.0 9.0 0.00 0.00 0.00 74 1018.8
20180820193857 74 106 2.0 6.0 0.00 0.00 0.00 76 1018.9
20180820193357 74 111 2.0 5.0 0.00 0.00 0.00 77 1018.9
20180820192857 73 106 1.0 3.0 0.00 0.00 0.00 76 1019.0
20180820192357 73 77 1.0 6.0 0.00 0.00 0.00 76 1019.0
20180820191858 73 100 1.0 3.0 0.00 0.00 0.00 76 1019.0
20180820191357 73 95 1.0 7.0 0.00 0.00 0.00 76 1019.1
20180820190857 73 142 2.0 3.0 0.00 0.00 0.00 76 1019.1
20180820190357 73 160 2.0 5.0 0.00 0.00 0.00 77 1019.2
20180820185857 73 140 1.0 2.0 0.00 0.00 0.00 78 1019.2
20180820185357 72 142 1.0 3.0 0.00 0.00 0.00 78 1019.3
20180820184857 72 142 1.0 3.0 0.00 0.00 0.00 79 1019.4
20180820184357 72 140 2.0 7.0 0.00 0.00 0.00 78 1019.3
20180820183857 72 138 2.0 7.0 0.00 0.00 0.00 78 1019.5
20180820183357 72 93 1.0 3.0 0.00 0.00 0.00 78 1019.4
20180820182858 72 93 0.0 1.0 0.00 0.00 0.00 78 1019.5
20180820182358 72 92 0.0 3.0 0.00 0.00 0.00 78 1019.4
20180820181857 72 94 0.0 1.0 0.00 0.00 0.00 79 1019.4
20180820181358 71 94 1.0 2.0 0.00 0.00 0.00 79 1019.4
20180820180858 71 93 0.0 2.0 0.00 0.00 0.00 79 1019.5
20180820180357 71 93 1.0 2.0 0.00 0.00 0.00 80 1019.5
20180820175857 71 94 1.0 3.0 0.00 0.00 0.00 81 1019.5
20180820175357 71 94 1.0 3.0 0.00 0.00 0.00 80 1019.5
20180820174857 71 95 0.0 3.0 0.00 0.00 0.00 80 1019.5
20180820174358 71 95 2.0 3.0 0.00 0.00 0.00 80 1019.3
20180820173857 71 85 2.0 3.0 0.00 0.00 0.00 80 1019.3
20180820173358 71 112 0.0 3.0 0.00 0.00 0.00 80 1019.4
20180820172858 71 116 1.0 3.0 0.00 0.00 0.00 79 1019.4
20180820172357 71 113 2.0 6.0 0.00 0.00 0.00 79 1019.3
20180820171857 71 87 2.0 7.0 0.00 0.00 0.00 79 1019.4
20180820171358 71 70 2.0 7.0 0.00 0.00 0.00 79 1019.3
20180820170858 71 104 4.0 8.0 0.00 0.00 0.00 79 1019.3
20180820170357 71 97 1.0 7.0 0.00 0.00 0.00 79 1019.2
20180820165857 71 112 2.0 7.0 0.00 0.00 0.00 79 1019.2
20180820165358 71 93 2.0 8.0 0.00 0.00 0.00 79 1019.3
20180820164858 71 82 2.0 3.0 0.00 0.00 0.00 79 1019.3
20180820164358 71 96 1.0 3.0 0.00 0.00 0.00 79 1019.3
20180820163858 71 93 2.0 6.0 0.00 0.00 0.00 81 1019.2
20180820163358 71 96 1.0 6.0 0.00 0.00 0.00 80 1019.2
20180820162858 70 83 1.0 3.0 0.00 0.00 0.00 80 1019.2
20180820162358 70 54 2.0 6.0 0.00 0.00 0.00 81 1019.3
20180820161858 70 63 1.0 2.0 0.00 0.00 0.00 81 1019.3
20180820161357 70 63 1.0 3.0 0.00 0.00 0.00 81 1019.2
20180820160857 70 58 1.0 3.0 0.00 0.00 0.00 80 1019.3
20180820160358 71 40 2.0 8.0 0.00 0.00 0.00 80 1019.1
20180820155857 71 77 0.0 5.0 0.00 0.00 0.00 80 1019.1
20180820155357 71 37 2.0 7.0 0.00 0.00 0.00 80 1019.2
20180820154857 71 40 3.0 5.0 0.00 0.00 0.00 81 1019.2
20180820154358 71 334 1.0 3.0 0.00 0.00 0.00 80 1019.2
20180820153858 71 48 1.0 5.0 0.00 0.00 0.00 81 1019.2
20180820153358 71 63 4.0 10.0 0.00 0.00 0.00 79 1019.1
20180820152858 71 34 3.0 9.0 0.00 0.00 0.00 82 1019.1
20180820152358 70 79 3.0 8.0 0.00 0.00 0.00 81 1019.1
20180820151857 71 41 3.0 5.0 0.00 0.00 0.00 82 1019.1
20180820151358 71 40 2.0 9.0 0.00 0.00 0.00 82 1019.2
20180820150857 71 11 3.0 8.0 0.00 0.00 0.00 83 1019.2
20180820150358 70 3 1.0 5.0 0.00 0.00 0.00 85 1019.2
20180820145858 69 22 2.0 10.0 0.00 0.00 0.00 86 1019.4
20180820145358 68 38 3.0 8.0 0.00 0.00 0.00 87 1019.5
20180820144858 68 16 1.0 3.0 0.00 0.00 0.00 88 1019.6
20180820144358 68 17 1.0 3.0 0.00 0.00 0.00 88 1019.6
20180820143858 68 68 3.0 6.0 0.00 0.00 0.00 88 1019.6
20180820143359 67 57 2.0 3.0 0.00 0.00 0.00 89 1019.7
20180820142858 67 7 3.0 5.0 0.00 0.00 0.00 88 1019.8
20180820142358 68 19 2.0 5.0 0.00 0.00 0.00 87 1019.8
20180820141858 68 41 0.0 3.0 0.00 0.00 0.00 87 1019.9
20180820141359 68 41 0.0 3.0 0.00 0.00 0.00 87 1019.9
20180820140859 67 28 2.0 5.0 0.00 0.00 0.00 87 1019.9
20180820140358 67 51 2.0 5.0 0.00 0.00 0.00 87 1019.8
20180820135858 67 50 2.0 9.0 0.00 0.00 0.00 87 1019.7
20180820135358 67 45 3.0 8.0 0.00 0.00 0.00 86 1019.6
20180820134858 67 55 3.0 10.0 0.00 0.00 0.00 85 1019.3
20180820134358 68 51 2.0 7.0 0.00 0.00 0.00 84 1019.3
20180820133859 68 88 3.0 9.0 0.00 0.00 0.00 84 1019.3
20180820133359 68 79 3.0 10.0 0.00 0.00 0.00 83 1019.3
20180820132858 68 43 3.0 10.0 0.00 0.00 0.00 83 1019.2
20180820132358 68 41 3.0 10.0 0.00 0.00 0.00 83 1019.0
20180820131859 68 18 3.0 8.0 0.00 0.00 0.00 84 1019.0
20180820131358 68 41 3.0 7.0 0.00 0.00 0.00 83 1019.0
20180820130858 68 42 3.0 8.0 0.00 0.00 0.00 84 1019.1
20180820130359 68 28 2.0 6.0 0.00 0.00 0.00 83 1019.1
20180820125859 68 22 3.0 8.0 0.00 0.00 0.00 83 1019.1
20180820125358 68 12 3.0 7.0 0.00 0.00 0.00 83 1019.2
20180820124858 68 27 2.0 9.0 0.00 0.00 0.00 83 1019.3
20180820124358 68 36 2.0 7.0 0.00 0.00 0.00 83 1019.2
20180820123858 68 51 2.0 9.0 0.00 0.00 0.00 82 1019.0
20180820123358 68 15 2.0 6.0 0.00 0.00 0.00 83 1019.0
20180820122859 68 37 2.0 5.0 0.00 0.00 0.00 83 1019.0
20180820122358 68 4 1.0 3.0 0.00 0.00 0.00 84 1019.1
20180820121858 67 37 1.0 6.0 0.00 0.00 0.00 84 1019.1
20180820121359 67 45 3.0 7.0 0.00 0.00 0.00 83 1019.0
20180820120858 67 39 4.0 8.0 0.00 0.00 0.00 83 1019.0
20180820120358 67 49 0.0 5.0 0.00 0.00 0.00 83 1019.0
20180820115859 67 54 1.0 5.0 0.00 0.00 0.00 83 1018.9
20180820115359 67 73 1.0 3.0 0.00 0.01 0.00 84 1018.9
20180820114859 67 26 0.0 3.0 0.00 0.01 0.00 84 1018.9
20180820114358 67 48 2.0 3.0 0.00 0.01 0.00 83 1018.9
20180820113859 67 46 1.0 3.0 0.00 0.01 0.00 83 1019.0
20180820113359 67 28 1.0 5.0 0.00 0.01 0.00 83 1019.0
20180820112859 67 41 2.0 5.0 0.00 0.01 0.00 84 1018.9
20180820112359 67 17 1.0 3.0 0.00 0.01 0.00 84 1018.8
20180820111859 67 39 1.0 3.0 0.00 0.01 0.00 84 1018.8
20180820111359 67 46 1.0 3.0 0.00 0.01 0.00 84 1018.7
20180820110858 67 23 2.0 5.0 0.00 0.01 0.00 84 1018.7
20180820110359 67 30 1.0 3.0 0.00 0.01 0.00 84 1018.7
20180820105858 66 30 0.0 3.0 0.00 0.01 0.00 84 1018.7
20180820105359 66 30 0.0 1.0 0.00 0.01 0.00 84 1018.7
20180820104859 66 31 0.0 3.0 0.00 0.01 0.00 84 1018.6
20180820104359 66 34 1.0 3.0 0.00 0.01 0.00 84 1018.5
20180820103859 66 48 2.0 3.0 0.00 0.01 0.00 84 1018.5
20180820103359 66 11 1.0 2.0 0.00 0.01 0.00 84 1018.5
20180820102859 66 10 1.0 3.0 0.00 0.01 0.00 84 1018.4
20180820102359 66 19 1.0 2.0 0.00 0.01 0.00 83 1018.3
20180820101859 66 19 1.0 5.0 0.00 0.01 0.00 83 1018.3
20180820101359 66 37 3.0 5.0 0.00 0.01 0.00 83 1018.2
20180820100859 66 36 1.0 5.0 0.00 0.01 0.00 83 1018.2
20180820100359 66 36 1.0 3.0 0.00 0.01 0.00 83 1018.2
20180820095859 66 24 2.0 5.0 0.00 0.01 0.00 83 1018.2
20180820095359 66 32 2.0 3.0 0.00 0.01 0.00 83 1018.2
20180820094859 66 20 3.0 8.0 0.00 0.01 0.00 83 1018.2
20180820094359 66 37 1.0 3.0 0.00 0.01 0.00 83 1018.3
20180820093859 66 23 2.0 3.0 0.00 0.01 0.00 83 1018.2
20180820093359 66 37 2.0 3.0 0.00 0.01 0.00 83 1018.3
20180820092859 67 26 2.0 5.0 0.00 0.01 0.00 83 1018.2
20180820092400 67 7 1.0 3.0 0.00 0.01 0.00 82 1018.3
20180820091859 66 0 0.0 1.0 0.00 0.01 0.00 82 1018.3
20180820091359 66 0 1.0 2.0 0.00 0.01 0.00 82 1018.3
20180820090859 67 0 0.0 3.0 0.00 0.01 0.00 82 1018.1
20180820090359 67 0 1.0 5.0 0.00 0.01 0.00 82 1018.0
20180820085859 66 82 1.0 2.0 0.00 0.01 0.00 82 1018.1
20180820085400 66 82 0.0 1.0 0.00 0.01 0.00 82 1018.0
20180820084900 67 82 0.0 0.0 0.00 0.01 0.00 81 1017.9
20180820084359 67 82 0.0 1.0 0.00 0.01 0.00 80 1017.9
20180820083859 67 82 2.0 3.0 0.00 0.01 0.00 81 1017.8
20180820083400 67 42 1.0 3.0 0.00 0.01 0.00 81 1017.7
20180820082859 67 60 0.0 5.0 0.00 0.01 0.00 81 1017.8
20180820082400 67 65 1.0 3.0 0.00 0.01 0.00 81 1017.7
20180820081859 67 76 0.0 3.0 0.00 0.01 0.00 81 1017.6
20180820081400 67 80 1.0 3.0 0.00 0.01 0.00 80 1017.7
20180820080859 67 65 1.0 3.0 0.00 0.01 0.00 80 1017.6
20180820080359 67 46 0.0 3.0 0.00 0.01 0.00 80 1017.5
20180820075859 67 51 1.0 3.0 0.00 0.01 0.00 80 1017.5
20180820075359 67 48 0.0 3.0 0.00 0.01 0.00 80 1017.5
20180820074859 67 30 1.0 3.0 0.00 0.01 0.00 80 1017.4
20180820074400 67 59 1.0 3.0 0.00 0.01 0.00 80 1017.3
20180820073900 67 57 1.0 3.0 0.00 0.01 0.00 80 1017.4
20180820073400 67 55 2.0 5.0 0.00 0.01 0.00 80 1017.4
20180820072859 67 31 3.0 7.0 0.00 0.01 0.00 79 1017.4
20180820072359 67 48 2.0 7.0 0.00 0.01 0.00 79 1017.3
20180820071859 67 53 2.0 5.0 0.00 0.01 0.00 79 1017.3
20180820071359 67 51 2.0 6.0 0.00 0.01 0.00 78 1017.3
20180820070859 67 32 2.0 6.0 0.00 0.01 0.00 79 1017.4
20180820070359 67 15 2.0 6.0 0.00 0.01 0.00 78 1017.5
20180820065859 67 61 3.0 6.0 0.00 0.01 0.00 78 1017.4
20180820065359 67 66 2.0 8.0 0.00 0.01 0.00 78 1017.4
20180820064900 67 14 2.0 6.0 0.00 0.01 0.00 78 1017.4
20180820064400 67 104 3.0 12.0 0.00 0.01 0.00 78 1017.4
20180820063859 67 49 3.0 8.0 0.00 0.01 0.00 77 1017.5
20180820063359 67 50 3.0 7.0 0.00 0.01 0.00 77 1017.5
20180820062900 67 45 3.0 7.0 0.00 0.01 0.00 77 1017.5
20180820062400 68 53 3.0 9.0 0.00 0.01 0.00 77 1017.5
20180820061900 68 47 4.0 10.0 0.00 0.01 0.00 77 1017.5
20180820061359 68 39 2.0 8.0 0.00 0.01 0.00 76 1017.5
20180820060900 68 52 2.0 5.0 0.00 0.01 0.00 76 1017.5
20180820060400 68 56 3.0 8.0 0.00 0.01 0.00 76 1017.6
20180820055900 68 52 3.0 8.0 0.00 0.01 0.00 76 1017.7
20180820055400 68 66 2.0 6.0 0.00 0.01 0.00 77 1017.6
20180820054900 68 61 1.0 6.0 0.00 0.01 0.00 77 1017.6
20180820054400 68 38 3.0 9.0 0.00 0.01 0.00 77 1017.6
20180820053900 69 59 3.0 7.0 0.00 0.01 0.00 76 1017.4
20180820053400 69 55 3.0 7.0 0.00 0.01 0.00 75 1017.5
20180820052900 69 52 2.0 5.0 0.00 0.01 0.00 75 1017.5
20180820052400 69 54 1.0 6.0 0.00 0.01 0.00 76 1017.6
20180820051901 69 72 2.0 6.0 0.00 0.01 0.00 76 1017.5
20180820051400 69 107 2.0 5.0 0.00 0.01 0.00 76 1017.5
20180820050900 69 81 4.0 9.0 0.00 0.01 0.00 76 1017.6
20180820050400 69 94 1.0 6.0 0.00 0.01 0.00 76 1017.6
20180820045900 69 62 1.0 3.0 0.00 0.01 0.00 76 1017.7
20180820045400 69 91 3.0 7.0 0.00 0.01 0.00 75 1017.7
20180820044900 69 95 2.0 7.0 0.00 0.01 0.00 75 1017.7
20180820044400 69 42 1.0 3.0 0.00 0.01 0.00 75 1017.7
20180820043900 69 39 2.0 6.0 0.00 0.01 0.00 74 1017.7
20180820043400 70 89 1.0 3.0 0.00 0.01 0.00 74 1017.7
20180820042900 70 51 1.0 5.0 0.00 0.01 0.00 74 1017.6
20180820042400 70 73 2.0 6.0 0.00 0.01 0.00 74 1017.7
20180820041900 70 101 2.0 6.0 0.00 0.01 0.00 73 1017.7
20180820041400 70 46 1.0 3.0 0.00 0.01 0.00 73 1017.7
20180820040900 70 64 2.0 7.0 0.00 0.01 0.00 73 1017.7
20180820040400 70 50 1.0 6.0 0.00 0.01 0.00 72 1017.7
20180820035901 70 56 2.0 3.0 0.00 0.01 0.01 72 1017.5
20180820035401 70 95 2.0 8.0 0.00 0.01 0.01 72 1017.5
20180820034901 70 95 5.0 8.0 0.00 0.01 0.01 71 1017.4
20180820034401 70 88 4.0 10.0 0.00 0.01 0.01 71 1017.4
20180820033900 70 69 5.0 8.0 0.00 0.01 0.01 70 1017.5
20180820033401 70 90 5.0 12.0 0.00 0.01 0.01 70 1017.5
20180820032900 70 71 4.0 12.0 0.00 0.01 0.01 72 1017.4
20180820032400 70 86 2.0 12.0 0.00 0.01 0.01 77 1017.4
20180820031901 70 74 3.0 8.0 0.00 0.01 0.01 82 1017.3
20180820031401 70 42 1.0 7.0 0.00 0.01 0.01 82 1017.2
20180820030900 70 40 1.0 3.0 0.00 0.01 0.01 83 1017.4
20180820030400 70 86 1.0 6.0 0.00 0.01 0.01 83 1017.4
20180820025900 70 78 2.0 3.0 0.00 0.01 0.01 83 1017.4
20180820025400 70 85 2.0 3.0 0.00 0.01 0.01 84 1017.4
20180820024900 71 107 2.0 5.0 0.00 0.01 0.01 84 1017.4
20180820024400 71 52 1.0 3.0 0.00 0.01 0.01 84 1017.3
20180820023901 70 63 2.0 5.0 0.00 0.01 0.01 84 1017.3
20180820023400 70 37 1.0 3.0 0.00 0.01 0.01 84 1017.3
20180820022900 70 52 1.0 2.0 0.00 0.01 0.01 84 1017.2
20180820022400 71 51 0.0 3.0 0.00 0.01 0.01 84 1017.2
20180820021901 71 49 2.0 6.0 0.00 0.01 0.01 83 1017.0
20180820021401 71 51 3.0 7.0 0.00 0.01 0.01 83 1017.0
20180820020900 71 65 3.0 6.0 0.00 0.01 0.01 83 1017.0
20180820020401 71 43 3.0 7.0 0.00 0.01 0.01 83 1017.0
20180820015900 71 44 1.0 3.0 0.00 0.01 0.01 83 1017.0
20180820015401 71 52 1.0 5.0 0.00 0.01 0.01 83 1017.0
20180820014900 71 55 1.0 5.0 0.00 0.01 0.01 83 1016.9
20180820014400 71 82 2.0 3.0 0.00 0.01 0.01 83 1016.8
20180820013901 71 77 1.0 3.0 0.00 0.01 0.01 83 1016.7
20180820013400 71 39 1.0 3.0 0.00 0.01 0.01 83 1016.7
20180820012900 71 37 1.0 3.0 0.00 0.01 0.01 83 1016.8
20180820012401 71 34 1.0 3.0 0.00 0.01 0.01 83 1016.8
20180820011900 71 34 1.0 2.0 0.00 0.01 0.01 83 1016.6
20180820011401 71 34 1.0 2.0 0.00 0.01 0.01 82 1016.6
20180820010901 71 34 1.0 3.0 0.00 0.01 0.01 82 1016.5
20180820010401 71 29 0.0 3.0 0.00 0.01 0.01 82 1016.5
20180820005901 71 24 1.0 5.0 0.00 0.01 0.01 82 1016.4
20180820005401 71 62 1.0 6.0 0.00 0.01 0.01 81 1016.4
20180820004901 71 46 1.0 3.0 0.00 0.01 0.01 81 1016.5
20180820004401 71 58 0.0 1.0 0.00 0.01 0.01 81 1016.4
20180820003901 71 58 1.0 6.0 0.00 0.01 0.01 81 1016.3
20180820003400 71 65 2.0 6.0 0.00 0.01 0.01 81 1016.3
20180820002901 71 23 1.0 8.0 0.00 0.01 0.01 81 1016.3
20180820002401 71 89 1.0 5.0 0.00 0.01 0.01 81 1016.2
20180820001901 71 44 2.0 3.0 0.00 0.02 0.01 81 1016.1
20180820001401 71 49 2.0 6.0 0.00 0.02 0.01 81 1016.0
20180820000901 71 41 3.0 5.0 0.00 0.03 0.01 81 1016.0
20180820000401 71 57 2.0 3.0 0.00 0.03 0.01 81 1015.9
20180819235901 71 72 1.0 3.0 0.00 0.03 0.01 81 1015.9
20180819235401 71 80 1.0 3.0 0.00 0.03 0.01 81 1015.9
20180819234901 71 58 1.0 3.0 0.00 0.04 0.01 81 1015.8
20180819234401 71 74 1.0 3.0 0.00 0.04 0.01 81 1015.9
20180819233901 71 77 0.0 3.0 0.00 0.04 0.01 81 1015.8
20180819233401 71 36 1.0 3.0 0.00 0.04 0.01 81 1015.8
20180819232901 71 34 0.0 2.0 0.00 0.04 0.01 81 1015.8
20180819232403 71 34 1.0 5.0 0.00 0.04 0.01 80 1015.8
20180819231901 71 48 2.0 3.0 0.00 0.04 0.01 80 1015.8
20180819231401 71 53 1.0 3.0 0.00 0.04 0.01 80 1015.7
20180819230901 71 55 1.0 3.0 0.00 0.04 0.01 79 1015.7
20180819230401 71 51 2.0 5.0 0.00 0.07 0.01 79 1015.7
20180819225901 71 52 3.0 8.0 0.00 0.10 0.01 78 1015.7
20180819225401 71 51 1.0 3.0 0.00 0.11 0.01 78 1015.6
20180819224902 71 54 1.0 3.0 0.00 0.11 0.01 78 1015.5
20180819224401 71 55 2.0 5.0 0.00 0.13 0.01 77 1015.4
20180819223901 71 35 1.0 3.0 0.00 0.13 0.01 78 1015.4
20180819223401 71 42 1.0 3.0 0.00 0.13 0.01 79 1015.4